Location: Newark
(55.7083°N, 13.1992°E)
Time: 12:48:24
(UTC+00:00)

Transit 4A - Pass Details

Date: 20 February 2020
Orbit: 871 x 973 km, 66.8° (Epoch: 05 April)

Event Time Altitude Azimuth Distance (km) Brightness Sun altitude
Exits shadow 01:28:29 29° 34° (NE) 1,565 9.5 -39.0°
Drops below altitude 10° 01:31:14 10° 42° (NE) 2,531 10.9 -38.7°
Sets 01:33:45 0° 46° (NE) 3,472 11.8 -38.5°
